Powrót do katalogu

DELTA 1 R/B

AktywnySSO
NORAD 9063·ROCKET BODY·🇺🇸 United States

Wystrzelony Jul 29, 1976 z Vandenberg Space Force Base

Loading…

Następne Przeloty (najbliższe 24 godziny)

TLE

ŚwieżeSource: Space-Track

Epoka: Sep 14, 2026, 11:53 UTC

1 09063U 76077B   26257.49555116 -.00000047  00000-0 -64044-5 0  9999
2 09063 102.0511 252.1645 0060978 219.0555 295.7871 12.50508346330269

Śledź DELTA 1 R/B w czasie rzeczywistym z AllMySat

Download on the App Store